Location: Marsån
(66.4167°N, 22.2833°E)
Time: 11:39:49
(UTC+00:00)

Cosmos 676 Rocket - Pass Details

Date: 24 February 2024
Orbit: 752 x 782 km, 74.0° (Epoch: 15 April)

Event Time Altitude Azimuth Distance (km) Brightness Sun altitude
Rises 17:00:34 0° 201° (SSW) 3,205 7.5 -10.3°
Reaches altitude 10° 17:02:57 10° 197° (SSW) 2,281 6.7 -10.5°
Maximum altitude 17:07:59 56° 120° (ESE) 896 4.1 -11.1°
Drops below altitude 10° 17:13:04 10° 44° (NE) 2,292 6.1 -11.6°
Enters shadow 17:15:22 - 40° (NE) 3,187 6.9 -11.8°
